This is the latest recevied weather packets stored in our database for station/object KC9DRE. If no packets are shown the sender has not sent any weather packets the latest 10 day(s).
| Time | Temp. | Humidity | Pressure | Rain* | Wind** | Luminosity | Snow |
|---|---|---|---|---|---|---|---|
| 1778180005 | 16.67° C | 36% | 1015.5 hPa | 0 mm | - | 841 W/m² | - |
| 1778179702 | 17.22° C | 37% | 1015.5 hPa | 0 mm | - | 432 W/m² | - |
| 1778179400 | 17.78° C | 43% | 1015.4 hPa | 0 mm | - | 846 W/m² | - |
| 1778179096 | 16.67° C | 39% | 1015.5 hPa | 0 mm | - | 846 W/m² | - |
| 1778178794 | 16.67° C | 37% | 1015.5 hPa | 0 mm | - | 850 W/m² | - |
| 1778178491 | 16.67° C | 39% | 1015.4 hPa | 0 mm | - | 852 W/m² | - |
| 1778178186 | 16.67° C | 36% | 1015.5 hPa | 0 mm | - | 860 W/m² | - |
| 1778177883 | 16.67° C | 39% | 1015.4 hPa | 0 mm | - | 867 W/m² | - |
| 1778177579 | 16.67° C | 45% | 1015.5 hPa | 0 mm | - | 869 W/m² | - |
| 1778177276 | 16.67° C | 41% | 1015.6 hPa | 0 mm | - | 877 W/m² | - |
| 1778176973 | 16.67° C | 39% | 1015.5 hPa | 0 mm | - | 873 W/m² | - |
| 1778176668 | 16.67° C | 38% | 1015.7 hPa | 0 mm | - | 879 W/m² | - |
| 1778176365 | 16.67° C | 35% | 1015.8 hPa | 0 mm | - | 880 W/m² | - |
| 1778176063 | 17.78° C | 34% | 1015.8 hPa | 0 mm | - | 879 W/m² | - |
| 1778175761 | 17.78° C | 36% | 1016.1 hPa | 0 mm | - | 880 W/m² | - |
| 1778175458 | 17.22° C | 39% | 1016.2 hPa | 0 mm | - | 880 W/m² | - |
| 1778175155 | 16.67° C | 40% | 1016.3 hPa | 0 mm | - | 879 W/m² | - |
| 1778174851 | 15.56° C | 41% | 1016.4 hPa | 0 mm | - | 879 W/m² | - |
| 1778174549 | 16.11° C | 35% | 1016.4 hPa | 0 mm | - | 879 W/m² | - |
| 1778174248 | 16.67° C | 35% | 1016.2 hPa | 0 mm | - | 879 W/m² | - |
| 1778173946 | 16.67° C | 38% | 1016.3 hPa | 0 mm | - | 880 W/m² | - |
| 1778173643 | 16.67° C | 40% | 1016.3 hPa | 0 mm | - | 880 W/m² | - |
| 1778173340 | 16.67° C | 38% | 1016.6 hPa | 0 mm | - | 880 W/m² | - |
| 1778173035 | 16.11° C | 41% | 1016.6 hPa | 0 mm | - | 880 W/m² | - |
| 1778172732 | 15.56° C | 36% | 1016.7 hPa | 0 mm | - | 879 W/m² | - |
* Rain latest hour (hover to see other rain measurements)
** Current wind speed in m/s (hover to see current wind gust speed)